User: anonymous   Login
Location: Unspecified
(0.0000°N, 0.0000°E)
Time: 18:08:20
(UTC+00:00)
Language:

CUTE-I - Orbit

View from above orbital plane
View from above orbital plane
View from above satellite
View from above satellite

Ground track
Ground track

The orbit data is extracted from the following two-line orbital elements,

1 27844U 03031E   24115.02812403  .00001239  00000-0  56719-3 0  9991
2 27844  98.6791 122.8120 0008694 306.6016  53.4362 14.23184469 80117
Epoch (UTC): 24 April 2024 00:40:29
Eccentricity: 0.0008694
inclination: 98.6791°
perigee height: 808 km
apogee height: 821 km
right ascension of ascending node: 122.8120°
argument of perigee: 306.6016°
revolutions per day: 14.23184469
mean anomaly at epoch: 53.4362°
orbit number at epoch: 8011

The dashed part of the orbit path shows where the satellite is in the earth's shadow,  

DLR